When you browse on this site, cookies collect data to enhance your experience and personalize the content and advertising you see.
Visit our Privacy Policy to learn more. By continuing to use the site, you agree to this use of cookies and data.
  • In Latvia
  • List of Countries
  • For 7 days
  • Water Temperature
  • Weather Map
  • Weather Widgets
  • user-avatar
    Login

    Hourly Weather Belmopan

    Today, 21 January, Tuesday

    Time Temperature Precipitation Wind Pressure Humidity
    00:00 +22°C° 0 mm 1 mps 757 mmHg 99%
    01:00 +22°C° 0.1 mm 1 mps 757 mmHg 99%
    02:00 +22°C° 0.1 mm 1 mps 757 mmHg 98%
    03:00 +22°C° 0.1 mm 1 mps 757 mmHg 98%
    04:00 +21°C° 0 mm 1 mps 757 mmHg 98%
    05:00 +21°C° 0 mm 1 mps 757 mmHg 98%
    06:00 +20°C° 0 mm 2 mps 758 mmHg 99%
    07:00 +20°C° 0.1 mm 2 mps 758 mmHg 97%
    08:00 +20°C° 0.1 mm 2 mps 759 mmHg 95%
    09:00 +20°C° 0.1 mm 2 mps 759 mmHg 94%
    10:00 +23°C° 0.1 mm 2 mps 759 mmHg 84%
    11:00 +24°C° 0.1 mm 2 mps 759 mmHg 75%
    12:00 +25°C° 0.1 mm 3 mps 759 mmHg 65%
    13:00 +26°C° 0 mm 2 mps 759 mmHg 62%
    14:00 +26°C° 0 mm 2 mps 758 mmHg 58%
    15:00 +27°C° 0 mm 2 mps 757 mmHg 55%
    16:00 +25°C° 0 mm 2 mps 757 mmHg 62%
    17:00 +24°C° 0 mm 1 mps 757 mmHg 70%
    18:00 +22°C° 0 mm 1 mps 757 mmHg 77%
    19:00 +19°C° 0 mm 0 mps 758 mmHg 80%
    20:00 +18°C° 0 mm 0 mps 758 mmHg 83%
    21:00 +17°C° 0 mm 0 mps 759 mmHg 86%
    22:00 +18°C° 0 mm 0 mps 759 mmHg 84%
    23:00 +18°C° 0 mm 0 mps 759 mmHg 82%

    Tomorrow, 22 January, Wednesday

    Time Temperature Precipitation Wind Pressure Humidity
    00:00 +18°C° 0 mm 0 mps 759 mmHg 79%
    01:00 +18°C° 0 mm 0 mps 758 mmHg 82%
    02:00 +17°C° 0 mm 0 mps 758 mmHg 84%
    03:00 +19°C° 0 mm 1 mps 757 mmHg 86%
    04:00 +16°C° 0 mm 0 mps 757 mmHg 89%
    05:00 +16°C° 0 mm 0 mps 757 mmHg 91%
    06:00 +15°C° 0 mm 0 mps 757 mmHg 93%
    07:00 +17°C° 0 mm 0 mps 758 mmHg 85%
    08:00 +21°C° 0 mm 1 mps 758 mmHg 77%
    09:00 +22°C° 0 mm 1 mps 758 mmHg 70%
    10:00 +24°C° 0 mm 1 mps 758 mmHg 63%
    11:00 +26°C° 0 mm 1 mps 757 mmHg 57%
    12:00 +27°C° 0 mm 1 mps 757 mmHg 51%
    13:00 +27°C° 0 mm 1 mps 756 mmHg 52%
    14:00 +27°C° 0 mm 1 mps 755 mmHg 52%
    15:00 +27°C° 0 mm 1 mps 754 mmHg 53%
    16:00 +25°C° 0 mm 1 mps 754 mmHg 63%
    17:00 +23°C° 0 mm 1 mps 754 mmHg 72%
    18:00 +22°C° 0 mm 1 mps 754 mmHg 82%
    19:00 +21°C° 0 mm 1 mps 755 mmHg 85%
    20:00 +20°C° 0 mm 1 mps 755 mmHg 89%
    21:00 +19°C° 0 mm 1 mps 755 mmHg 93%
    22:00 +19°C° 0 mm 1 mps 755 mmHg 93%
    23:00 +19°C° 0 mm 1 mps 755 mmHg 94%

    Day after tomorrow, 23 January, Thursday

    Time Temperature Precipitation Wind Pressure Humidity
    00:00 +17°C° 0 mm 0 mps 755 mmHg 95%
    01:00 +17°C° 0 mm 0 mps 754 mmHg 95%
    02:00 +17°C° 0 mm 0 mps 754 mmHg 96%
    03:00 +16°C° 0 mm 0 mps 753 mmHg 97%
    04:00 +17°C° 0 mm 0 mps 753 mmHg 96%
    05:00 +17°C° 0 mm 0 mps 753 mmHg 95%
    06:00 +17°C° 0 mm 0 mps 753 mmHg 94%
    07:00 +19°C° 0 mm 0 mps 754 mmHg 88%
    08:00 +23°C° 0 mm 1 mps 754 mmHg 83%
    09:00 +24°C° 0 mm 1 mps 755 mmHg 78%
    10:00 +25°C° 0 mm 1 mps 754 mmHg 76%
    11:00 +25°C° 0 mm 1 mps 754 mmHg 74%
    12:00 +26°C° 0 mm 2 mps 753 mmHg 73%
    13:00 +26°C° 0.1 mm 2 mps 753 mmHg 72%
    14:00 +27°C° 0.1 mm 2 mps 752 mmHg 71%
    15:00 +27°C° 0.1 mm 2 mps 751 mmHg 70%
    16:00 +26°C° 0 mm 2 mps 751 mmHg 76%
    17:00 +24°C° 0 mm 1 mps 752 mmHg 83%
    18:00 +23°C° 0 mm 1 mps 752 mmHg 89%
    19:00 +23°C° 0 mm 1 mps 753 mmHg 90%
    20:00 +22°C° 0 mm 1 mps 753 mmHg 91%
    21:00 +22°C° 0 mm 1 mps 754 mmHg 92%
    22:00 +22°C° 0 mm 1 mps 754 mmHg 93%
    23:00 +21°C° 0 mm 1 mps 754 mmHg 94%

    24 January, Friday

    Time Temperature Precipitation Wind Pressure Humidity
    00:00 +21°C° 0 mm 1 mps 754 mmHg 95%
    01:00 +19°C° 0 mm 0 mps 753 mmHg 96%
    02:00 +18°C° 0 mm 0 mps 753 mmHg 97%
    03:00 +18°C° 0 mm 0 mps 753 mmHg 98%
    04:00 +18°C° 0 mm 0 mps 753 mmHg 98%
    05:00 +18°C° 0 mm 0 mps 753 mmHg 98%
    06:00 +18°C° 0 mm 0 mps 753 mmHg 98%
    07:00 +20°C° 0 mm 0 mps 754 mmHg 90%
    08:00 +22°C° 0 mm 0 mps 755 mmHg 81%
    09:00 +24°C° 0 mm 0 mps 755 mmHg 73%
    10:00 +27°C° 0 mm 1 mps 755 mmHg 68%
    11:00 +28°C° 0 mm 1 mps 755 mmHg 63%
    12:00 +29°C° 0 mm 1 mps 754 mmHg 58%
    13:00 +29°C° 0 mm 1 mps 754 mmHg 59%
    14:00 +29°C° 0 mm 2 mps 753 mmHg 59%
    15:00 +29°C° 0 mm 2 mps 752 mmHg 60%
    16:00 +27°C° 0 mm 2 mps 753 mmHg 68%
    17:00 +25°C° 0 mm 1 mps 753 mmHg 76%
    18:00 +24°C° 0 mm 1 mps 753 mmHg 84%
    19:00 +23°C° 0 mm 1 mps 754 mmHg 88%
    20:00 +22°C° 0 mm 1 mps 754 mmHg 91%
    21:00 +21°C° 0 mm 1 mps 755 mmHg 94%
    22:00 +20°C° 0 mm 1 mps 755 mmHg 94%
    23:00 +20°C° 0 mm 1 mps 754 mmHg 94%

    25 January, Saturday

    Time Temperature Precipitation Wind Pressure Humidity
    00:00 +20°C° 0 mm 1 mps 754 mmHg 95%
    01:00 +20°C° 0 mm 1 mps 754 mmHg 94%
    02:00 +17°C° 0 mm 0 mps 754 mmHg 93%
    03:00 +17°C° 0 mm 0 mps 754 mmHg 93%
    04:00 +17°C° 0 mm 0 mps 754 mmHg 93%
    05:00 +17°C° 0 mm 0 mps 754 mmHg 94%
    06:00 +17°C° 0 mm 0 mps 754 mmHg 95%
    07:00 +19°C° 0 mm 0 mps 755 mmHg 85%
    08:00 +21°C° 0 mm 0 mps 755 mmHg 76%
    09:00 +26°C° 0 mm 1 mps 756 mmHg 67%
    10:00 +27°C° 0 mm 1 mps 756 mmHg 63%
    11:00 +28°C° 0 mm 1 mps 756 mmHg 59%
    12:00 +29°C° 0 mm 2 mps 755 mmHg 54%
    13:00 +29°C° 0 mm 2 mps 755 mmHg 55%
    14:00 +29°C° 0 mm 2 mps 754 mmHg 56%
    15:00 +29°C° 0 mm 2 mps 754 mmHg 57%
    16:00 +27°C° 0 mm 2 mps 754 mmHg 65%
    17:00 +25°C° 0 mm 2 mps 754 mmHg 73%
    18:00 +24°C° 0 mm 1 mps 754 mmHg 81%
    19:00 +23°C° 0 mm 1 mps 755 mmHg 84%
    20:00 +22°C° 0 mm 1 mps 755 mmHg 87%
    21:00 +21°C° 0 mm 1 mps 755 mmHg 90%
    22:00 +20°C° 0 mm 1 mps 755 mmHg 91%
    23:00 +18°C° 0 mm 0 mps 755 mmHg 92%

    26 January, Sunday

    Time Temperature Precipitation Wind Pressure Humidity
    00:00 +18°C° 0 mm 0 mps 755 mmHg 93%
    01:00 +18°C° 0 mm 0 mps 754 mmHg 94%
    02:00 +17°C° 0 mm 0 mps 754 mmHg 95%
    03:00 +17°C° 0 mm 0 mps 754 mmHg 96%
    04:00 +17°C° 0 mm 0 mps 754 mmHg 97%
    05:00 +17°C° 0 mm 0 mps 754 mmHg 97%
    06:00 +18°C° 0 mm 0 mps 754 mmHg 97%
    07:00 +20°C° 0 mm 0 mps 754 mmHg 88%
    08:00 +24°C° 0 mm 1 mps 754 mmHg 80%
    09:00 +26°C° 0 mm 1 mps 755 mmHg 71%
    10:00 +28°C° 0 mm 1 mps 754 mmHg 66%
    11:00 +29°C° 0 mm 2 mps 754 mmHg 60%
    12:00 +30°C° 0 mm 2 mps 753 mmHg 55%
    13:00 +30°C° 0 mm 2 mps 753 mmHg 56%
    14:00 +30°C° 0 mm 2 mps 752 mmHg 57%
    15:00 +30°C° 0 mm 2 mps 751 mmHg 58%
    16:00 +28°C° 0 mm 2 mps 751 mmHg 66%
    17:00 +26°C° 0 mm 2 mps 752 mmHg 75%
    18:00 +24°C° 0 mm 1 mps 752 mmHg 83%
    19:00 +23°C° 0 mm 1 mps 752 mmHg 87%
    20:00 +22°C° 0 mm 1 mps 753 mmHg 91%
    21:00 +22°C° 0 mm 1 mps 753 mmHg 95%
    22:00 +21°C° 0 mm 1 mps 753 mmHg 95%
    23:00 +19°C° 0 mm 0 mps 753 mmHg 94%
    Show more